Time,TemperatureF,DewpointF,PressureIn,WindDirection,WindDirectionDegrees,WindSpeedMPH,WindSpeedGustMPH,Humidity,HourlyPrecipIn,Conditions,Clouds,dailyrainin,SoftwareType,DateUTC
2013-06-05 00:00:00,61.5,57.6,29.88,ESE,111,0.0,0.0,87,0.00,,,0.00,Wunderground v.1.15,2013-06-05 05:00:00,
2013-06-05 00:05:00,61.2,57.3,29.88,ESE,111,0.0,0.0,87,0.00,,,0.00,Wunderground v.1.15,2013-06-05 05:05:00,
2013-06-05 00:10:00,60.9,57.0,29.88,ESE,111,0.0,0.0,87,0.00,,,0.00,Wunderground v.1.15,2013-06-05 05:10:00,
2013-06-05 00:19:00,60.7,57.1,29.88,ESE,111,0.0,0.0,88,0.00,,,0.00,Wunderground v.1.15,2013-06-05 05:19:00,
2013-06-05 00:25:00,60.9,57.6,29.88,ESE,111,0.0,0.0,89,0.00,,,0.00,Wunderground v.1.15,2013-06-05 05:25:00,
2013-06-05 00:35:00,60.7,57.1,29.88,ESE,111,0.0,0.0,88,0.00,,,0.00,Wunderground v.1.15,2013-06-05 05:35:00,
2013-06-05 00:40:00,60.7,57.4,29.88,ESE,111,0.0,0.0,89,0.00,,,0.00,Wunderground v.1.15,2013-06-05 05:40:00,
2013-06-05 00:49:00,61.2,57.9,29.87,ESE,111,0.0,0.0,89,0.00,,,0.00,Wunderground v.1.15,2013-06-05 05:49:00,
2013-06-05 00:55:00,61.0,57.4,29.87,ESE,111,0.0,0.0,88,0.00,,,0.00,Wunderground v.1.15,2013-06-05 05:55:00,
2013-06-05 01:05:00,60.5,56.9,29.87,ESE,111,0.0,0.0,88,0.00,,,0.00,Wunderground v.1.15,2013-06-05 06:05:00,
2013-06-05 01:15:00,60.5,56.9,29.87,ESE,111,0.0,0.0,88,0.00,,,0.00,Wunderground v.1.15,2013-06-05 06:15:00,
2013-06-05 01:25:00,60.4,57.1,29.88,ESE,111,0.0,0.0,89,0.00,,,0.00,Wunderground v.1.15,2013-06-05 06:25:00,
2013-06-05 01:35:00,60.7,57.4,29.86,ESE,111,0.0,0.0,89,0.00,,,0.00,Wunderground v.1.15,2013-06-05 06:35:00,
2013-06-05 01:45:00,61.5,58.2,29.86,ESE,111,0.0,0.0,89,0.00,,,0.00,Wunderground v.1.15,2013-06-05 06:45:00,
2013-06-05 01:55:00,62.3,58.4,29.86,ESE,105,0.0,1.0,87,0.00,,,0.00,Wunderground v.1.15,2013-06-05 06:55:00,
2013-06-05 02:05:00,62.3,57.7,29.86,ESE,105,0.0,0.0,85,0.00,,,0.00,Wunderground v.1.15,2013-06-05 07:05:00,
2013-06-05 02:10:00,62.1,57.9,29.86,ESE,105,0.0,0.0,86,0.00,,,0.00,Wunderground v.1.15,2013-06-05 07:10:00,
2013-06-05 02:20:00,61.6,57.0,29.86,ESE,105,0.0,0.0,85,0.00,,,0.00,Wunderground v.1.15,2013-06-05 07:20:00,
2013-06-05 02:25:00,61.5,57.3,29.86,ESE,105,0.0,0.0,86,0.00,,,0.00,Wunderground v.1.15,2013-06-05 07:25:00,
2013-06-05 02:35:00,62.0,58.1,29.86,ESE,105,0.0,0.0,87,0.00,,,0.00,Wunderground v.1.15,2013-06-05 07:35:00,
2013-06-05 02:45:00,61.8,57.6,29.86,ESE,105,0.0,0.0,86,0.00,,,0.00,Wunderground v.1.15,2013-06-05 07:45:00,
2013-06-05 02:54:00,61.8,57.6,29.85,ESE,105,0.0,0.0,86,0.00,,,0.00,Wunderground v.1.15,2013-06-05 07:54:00,
2013-06-05 03:00:00,61.8,57.9,29.85,ESE,105,0.0,0.0,87,0.00,,,0.00,Wunderground v.1.15,2013-06-05 08:00:00,
2013-06-05 03:05:00,62.0,58.1,29.85,ESE,105,0.0,0.0,87,0.00,,,0.00,Wunderground v.1.15,2013-06-05 08:05:00,
2013-06-05 03:10:00,62.3,58.4,29.85,ESE,105,0.0,0.0,87,0.00,,,0.00,Wunderground v.1.15,2013-06-05 08:10:00,
2013-06-05 03:20:00,62.3,58.1,29.86,ESE,105,0.0,0.0,86,0.00,,,0.00,Wunderground v.1.15,2013-06-05 08:20:00,
2013-06-05 03:30:00,61.5,57.3,29.86,ESE,105,0.0,0.0,86,0.00,,,0.00,Wunderground v.1.15,2013-06-05 08:30:00,
2013-06-05 03:39:00,61.2,57.0,29.85,ESE,105,0.0,0.0,86,0.00,,,0.00,Wunderground v.1.15,2013-06-05 08:39:00,
2013-06-05 03:45:00,61.3,57.4,29.85,ESE,105,0.0,0.0,87,0.00,,,0.00,Wunderground v.1.15,2013-06-05 08:45:00,
2013-06-05 03:55:00,61.2,57.3,29.85,ESE,105,0.0,0.0,87,0.00,,,0.00,Wunderground v.1.15,2013-06-05 08:55:00,
2013-06-05 04:05:00,61.5,57.6,29.84,ESE,105,0.0,0.0,87,0.00,,,0.00,Wunderground v.1.15,2013-06-05 09:05:00,
2013-06-05 04:15:00,61.8,57.9,29.84,ESE,105,0.0,1.0,87,0.00,,,0.00,Wunderground v.1.15,2013-06-05 09:15:00,
2013-06-05 04:25:00,61.6,57.7,29.85,ESE,105,0.0,0.0,87,0.00,,,0.00,Wunderground v.1.15,2013-06-05 09:25:00,
2013-06-05 04:35:00,61.6,57.7,29.85,ESE,105,0.0,0.0,87,0.00,,,0.00,Wunderground v.1.15,2013-06-05 09:35:00,
2013-06-05 04:45:00,61.8,57.9,29.85,ESE,105,0.0,0.0,87,0.00,,,0.00,Wunderground v.1.15,2013-06-05 09:45:00,
2013-06-05 04:55:00,62.1,58.2,29.85,ESE,105,0.0,0.0,87,0.00,,,0.00,Wunderground v.1.15,2013-06-05 09:55:00,
2013-06-05 05:05:00,62.3,58.4,29.85,ESE,105,0.0,0.0,87,0.00,,,0.00,Wunderground v.1.15,2013-06-05 10:05:00,
2013-06-05 05:10:00,62.3,58.4,29.85,ESE,105,0.0,0.0,87,0.00,,,0.00,Wunderground v.1.15,2013-06-05 10:10:00,
2013-06-05 05:20:00,62.3,58.4,29.84,ESE,105,0.0,0.0,87,0.00,,,0.00,Wunderground v.1.15,2013-06-05 10:20:00,
2013-06-05 05:29:00,62.4,58.2,29.84,ESE,105,0.0,0.0,86,0.00,,,0.00,Wunderground v.1.15,2013-06-05 10:29:00,
2013-06-05 05:35:00,62.3,58.1,29.84,ESE,105,0.0,0.0,86,0.00,,,0.00,Wunderground v.1.15,2013-06-05 10:35:00,
2013-06-05 05:45:00,62.3,58.1,29.84,ESE,105,0.0,0.0,86,0.00,,,0.00,Wunderground v.1.15,2013-06-05 10:45:00,
2013-06-05 05:55:00,62.4,58.2,29.83,ESE,105,0.0,0.0,86,0.00,,,0.00,Wunderground v.1.15,2013-06-05 10:55:00,
2013-06-05 06:05:00,62.6,58.4,29.83,ESE,105,0.0,0.0,86,0.00,,,0.00,Wunderground v.1.15,2013-06-05 11:05:00,
2013-06-05 06:10:00,62.7,58.1,29.83,ESE,105,0.0,0.0,85,0.00,,,0.00,Wunderground v.1.15,2013-06-05 11:10:00,
2013-06-05 06:20:00,63.2,58.3,29.83,ESE,105,0.0,0.0,84,0.00,,,0.00,Wunderground v.1.15,2013-06-05 11:20:00,
2013-06-05 06:30:00,63.7,58.4,29.83,ESE,105,0.0,0.0,83,0.00,,,0.00,Wunderground v.1.15,2013-06-05 11:30:00,
2013-06-05 06:39:00,64.0,58.4,29.83,SSE,159,1.0,1.0,82,0.00,,,0.00,Wunderground v.1.15,2013-06-05 11:39:00,
2013-06-05 06:45:00,64.2,58.6,29.83,SSE,157,0.0,1.0,82,0.00,,,0.00,Wunderground v.1.15,2013-06-05 11:45:00,
2013-06-05 06:55:00,64.3,58.7,29.84,ESE,122,0.0,0.0,82,0.00,,,0.00,Wunderground v.1.15,2013-06-05 11:55:00,
2013-06-05 07:05:00,64.5,58.9,29.84,ESE,122,0.0,0.0,82,0.00,,,0.00,Wunderground v.1.15,2013-06-05 12:05:00,
2013-06-05 07:14:00,64.7,58.7,29.84,ESE,122,0.0,2.0,81,0.00,,,0.00,Wunderground v.1.15,2013-06-05 12:14:00,
2013-06-05 07:20:00,64.7,58.7,29.84,ESE,122,0.0,0.0,81,0.00,,,0.00,Wunderground v.1.15,2013-06-05 12:20:00,
2013-06-05 07:30:00,64.8,58.8,29.84,ESE,123,0.0,0.0,81,0.00,,,0.00,Wunderground v.1.15,2013-06-05 12:30:00,
2013-06-05 07:39:00,64.8,58.8,29.84,ESE,123,0.0,0.0,81,0.00,,,0.00,Wunderground v.1.15,2013-06-05 12:39:00,
2013-06-05 07:45:00,64.8,58.8,29.84,ESE,123,0.0,0.0,81,0.00,,,0.00,Wunderground v.1.15,2013-06-05 12:45:00,
2013-06-05 07:55:00,65.0,59.0,29.85,ESE,123,0.0,0.0,81,0.00,,,0.00,Wunderground v.1.15,2013-06-05 12:55:00,
2013-06-05 08:05:00,65.0,59.0,29.86,ESE,123,0.0,0.0,81,0.00,,,0.00,Wunderground v.1.15,2013-06-05 13:05:00,
2013-06-05 08:15:00,65.0,59.0,29.86,ESE,123,0.0,0.0,81,0.00,,,0.00,Wunderground v.1.15,2013-06-05 13:15:00,
2013-06-05 08:25:00,64.8,58.8,29.86,ESE,123,0.0,0.0,81,0.00,,,0.00,Wunderground v.1.15,2013-06-05 13:25:00,
2013-06-05 08:34:00,65.0,59.0,29.86,ESE,123,0.0,0.0,81,0.00,,,0.00,Wunderground v.1.15,2013-06-05 13:34:00,
2013-06-05 08:40:00,65.0,59.0,29.86,ESE,123,0.0,0.0,81,0.00,,,0.00,Wunderground v.1.15,2013-06-05 13:40:00,
2013-06-05 08:50:00,64.8,58.8,29.86,ESE,119,0.0,0.0,81,0.00,,,0.00,Wunderground v.1.15,2013-06-05 13:50:00,
2013-06-05 09:00:00,64.8,59.2,29.86,SE,136,0.0,3.0,82,0.00,,,0.00,Wunderground v.1.15,2013-06-05 14:00:00,
2013-06-05 09:05:00,64.8,59.2,29.88,SE,146,1.0,3.0,82,0.00,,,0.00,Wunderground v.1.15,2013-06-05 14:05:00,
2013-06-05 09:15:00,65.0,59.0,29.88,SW,234,1.0,1.0,81,0.00,,,0.00,Wunderground v.1.15,2013-06-05 14:15:00,
2013-06-05 09:25:00,65.2,59.2,29.91,SSW,202,3.0,3.0,81,0.00,,,0.00,Wunderground v.1.15,2013-06-05 14:25:00,
2013-06-05 09:35:00,65.0,59.4,29.90,SSW,202,0.0,2.0,82,0.00,,,0.00,Wunderground v.1.15,2013-06-05 14:35:00,
2013-06-05 09:40:00,65.0,59.7,29.90,SSW,202,0.0,2.0,83,0.00,,,0.00,Wunderground v.1.15,2013-06-05 14:40:00,
2013-06-05 09:49:00,64.8,59.9,29.88,SSW,202,0.0,1.0,84,0.00,,,0.01,Wunderground v.1.15,2013-06-05 14:49:00,
2013-06-05 09:55:00,64.7,59.8,29.88,SSW,202,0.0,1.0,84,0.17,,,0.02,Wunderground v.1.15,2013-06-05 14:55:00,
2013-06-05 10:05:00,64.5,60.2,29.88,SSW,202,0.0,0.0,86,0.09,,,0.03,Wunderground v.1.15,2013-06-05 15:05:00,
2013-06-05 10:15:00,64.7,60.7,29.88,SSW,202,0.0,0.0,87,0.04,,,0.03,Wunderground v.1.15,2013-06-05 15:15:00,
2013-06-05 10:24:00,65.0,61.0,29.87,SSW,202,0.0,0.0,87,0.00,,,0.03,Wunderground v.1.15,2013-06-05 15:24:00,
2013-06-05 10:30:00,65.2,61.2,29.87,SSW,202,0.0,0.0,87,0.00,,,0.03,Wunderground v.1.15,2013-06-05 15:30:00,
2013-06-05 10:40:00,65.5,61.5,29.84,SSW,193,2.0,2.0,87,0.00,,,0.03,Wunderground v.1.15,2013-06-05 15:40:00,
2013-06-05 10:49:00,65.8,61.8,29.86,ESE,123,3.0,3.0,87,0.00,,,0.03,Wunderground v.1.15,2013-06-05 15:49:00,
2013-06-05 10:55:00,66.1,62.4,29.86,South,186,2.0,5.0,88,0.00,,,0.03,Wunderground v.1.15,2013-06-05 15:55:00,
2013-06-05 11:05:00,66.9,62.9,29.83,SSE,167,1.0,1.0,87,0.00,,,0.03,Wunderground v.1.15,2013-06-05 16:05:00,
2013-06-05 11:15:00,67.4,63.1,29.83,South,177,2.0,5.0,86,0.00,,,0.03,Wunderground v.1.15,2013-06-05 16:15:00,
2013-06-05 11:24:00,67.9,63.2,29.83,SSW,194,3.0,5.0,85,0.00,,,0.03,Wunderground v.1.15,2013-06-05 16:24:00,
2013-06-05 11:30:00,68.4,63.4,29.83,South,176,3.0,5.0,84,0.00,,,0.04,Wunderground v.1.15,2013-06-05 16:30:00,
2013-06-05 11:40:00,68.9,63.5,29.84,SSE,165,2.0,3.0,83,0.00,,,0.04,Wunderground v.1.15,2013-06-05 16:40:00,
2013-06-05 11:50:00,68.1,63.1,29.84,South,173,3.0,3.0,84,0.00,,,0.04,Wunderground v.1.15,2013-06-05 16:50:00,
2013-06-05 11:59:00,68.4,63.4,29.84,East,99,1.0,1.0,84,0.00,,,0.04,Wunderground v.1.15,2013-06-05 16:59:00,
2013-06-05 12:05:00,68.6,63.6,29.82,East,99,0.0,1.0,84,0.00,,,0.04,Wunderground v.1.15,2013-06-05 17:05:00,
2013-06-05 12:15:00,69.3,63.9,29.82,SE,146,1.0,2.0,83,0.00,,,0.04,Wunderground v.1.15,2013-06-05 17:15:00,
2013-06-05 12:25:00,69.6,63.9,29.82,SSE,150,0.0,1.0,82,0.00,,,0.04,Wunderground v.1.15,2013-06-05 17:25:00,
2013-06-05 12:35:00,69.8,64.1,29.81,SSE,150,0.0,0.0,82,0.00,,,0.04,Wunderground v.1.15,2013-06-05 17:35:00,
2013-06-05 12:44:00,69.9,64.5,29.81,SSE,150,0.0,0.0,83,0.00,,,0.04,Wunderground v.1.15,2013-06-05 17:44:00,
2013-06-05 12:50:00,70.1,64.7,29.81,SSE,150,0.0,0.0,83,0.00,,,0.04,Wunderground v.1.15,2013-06-05 17:50:00,
2013-06-05 13:00:00,70.8,65.0,29.81,ESE,123,0.0,0.0,82,0.00,,,0.04,Wunderground v.1.15,2013-06-05 18:00:00,
2013-06-05 13:05:00,71.1,65.0,29.81,ESE,123,0.0,0.0,81,0.00,,,0.04,Wunderground v.1.15,2013-06-05 18:05:00,
2013-06-05 13:15:00,71.1,64.3,29.81,ESE,123,0.0,0.0,79,0.00,,,0.04,Wunderground v.1.15,2013-06-05 18:15:00,
2013-06-05 13:20:00,71.1,64.6,29.79,ESE,123,0.0,0.0,80,0.00,,,0.04,Wunderground v.1.15,2013-06-05 18:20:00,
2013-06-05 13:30:00,71.3,64.8,29.79,ESE,123,0.0,0.0,80,0.00,,,0.04,Wunderground v.1.15,2013-06-05 18:30:00,
2013-06-05 13:35:00,71.5,64.6,29.78,ESE,123,0.0,0.0,79,0.00,,,0.04,Wunderground v.1.15,2013-06-05 18:35:00,
2013-06-05 13:45:00,71.8,64.9,29.78,ESE,123,0.0,0.0,79,0.00,,,0.04,Wunderground v.1.15,2013-06-05 18:45:00,
2013-06-05 13:54:00,72.5,64.9,29.78,SE,124,0.0,0.0,77,0.00,,,0.04,Wunderground v.1.15,2013-06-05 18:54:00,
2013-06-05 14:00:00,72.8,65.2,29.78,East,100,0.0,1.0,77,0.00,,,0.04,Wunderground v.1.15,2013-06-05 19:00:00,
2013-06-05 14:05:00,73.2,64.8,29.78,ESE,104,0.0,1.0,75,0.00,,,0.04,Wunderground v.1.15,2013-06-05 19:05:00,
2013-06-05 14:10:00,73.3,63.7,29.78,WNW,292,0.0,0.0,72,0.00,,,0.04,Wunderground v.1.15,2013-06-05 19:10:00,
2013-06-05 14:19:00,74.0,64.0,29.78,WNW,302,0.0,0.0,71,0.00,,,0.04,Wunderground v.1.15,2013-06-05 19:19:00,
2013-06-05 14:25:00,74.6,64.2,29.78,NW,309,0.0,1.0,70,0.00,,,0.04,Wunderground v.1.15,2013-06-05 19:25:00,
2013-06-05 14:35:00,74.2,63.8,29.78,NW,306,1.0,1.0,70,0.00,,,0.04,Wunderground v.1.15,2013-06-05 19:35:00,
2013-06-05 14:45:00,73.3,63.3,29.78,SSW,210,1.0,1.0,71,0.00,,,0.04,Wunderground v.1.15,2013-06-05 19:45:00,
2013-06-05 14:54:00,72.7,63.5,29.78,SSW,198,0.0,1.0,73,0.00,,,0.04,Wunderground v.1.15,2013-06-05 19:54:00,
2013-06-05 15:00:00,72.7,64.3,29.78,SSW,204,0.0,0.0,75,0.00,,,0.04,Wunderground v.1.15,2013-06-05 20:00:00,
2013-06-05 15:05:00,72.8,64.4,29.77,SSW,203,0.0,0.0,75,0.00,,,0.04,Wunderground v.1.15,2013-06-05 20:05:00,
2013-06-05 15:10:00,73.5,65.8,29.77,SSW,204,0.0,0.0,77,0.00,,,0.04,Wunderground v.1.15,2013-06-05 20:10:00,
2013-06-05 15:19:00,74.4,65.6,29.76,NE,48,1.0,1.0,74,0.00,,,0.04,Wunderground v.1.15,2013-06-05 20:19:00,
2013-06-05 15:25:00,74.9,65.3,29.76,NE,47,1.0,1.0,72,0.00,,,0.04,Wunderground v.1.15,2013-06-05 20:25:00,
2013-06-05 15:35:00,75.1,63.8,29.76,NNW,340,1.0,1.0,68,0.00,,,0.04,Wunderground v.1.15,2013-06-05 20:35:00,
2013-06-05 15:45:00,75.1,65.1,29.76,NNW,339,0.0,2.0,71,0.00,,,0.04,Wunderground v.1.15,2013-06-05 20:45:00,
2013-06-05 15:54:00,75.8,64.9,29.75,NNW,339,0.0,0.0,69,0.00,,,0.04,Wunderground v.1.15,2013-06-05 20:54:00,
2013-06-05 16:00:00,75.8,64.9,29.75,NNW,339,0.0,0.0,69,0.00,,,0.04,Wunderground v.1.15,2013-06-05 21:00:00,
2013-06-05 16:05:00,75.6,64.7,29.75,NNW,338,0.0,0.0,69,0.00,,,0.04,Wunderground v.1.15,2013-06-05 21:05:00,
2013-06-05 16:15:00,76.0,65.5,29.75,NNW,338,0.0,1.0,70,0.00,,,0.04,Wunderground v.1.15,2013-06-05 21:15:00,
2013-06-05 16:25:00,75.8,64.5,29.74,NNW,348,0.0,0.0,68,0.00,,,0.04,Wunderground v.1.15,2013-06-05 21:25:00,
2013-06-05 16:35:00,75.6,64.3,29.74,NNW,348,0.0,0.0,68,0.00,,,0.04,Wunderground v.1.15,2013-06-05 21:35:00,
2013-06-05 16:40:00,75.1,64.2,29.74,North,350,0.0,0.0,69,0.00,,,0.04,Wunderground v.1.15,2013-06-05 21:40:00,
2013-06-05 16:49:00,74.4,64.4,29.75,North,350,0.0,0.0,71,0.00,,,0.04,Wunderground v.1.15,2013-06-05 21:49:00,
2013-06-05 16:55:00,74.0,65.2,29.75,SSE,168,1.0,5.0,74,0.00,,,0.04,Wunderground v.1.15,2013-06-05 21:55:00,
2013-06-05 17:05:00,72.5,66.0,29.76,NW,320,5.0,7.0,80,0.00,,,0.04,Wunderground v.1.15,2013-06-05 22:05:00,
2013-06-05 17:14:00,71.1,65.0,29.76,West,259,2.0,5.0,81,0.00,,,0.04,Wunderground v.1.15,2013-06-05 22:14:00,
2013-06-05 17:20:00,70.9,65.5,29.76,NW,310,1.0,1.0,83,0.00,,,0.04,Wunderground v.1.15,2013-06-05 22:20:00,
2013-06-05 17:29:00,70.6,65.5,29.76,NW,305,1.0,1.0,84,0.00,,,0.04,Wunderground v.1.15,2013-06-05 22:29:00,
2013-06-05 17:35:00,70.8,66.1,29.78,NW,308,1.0,1.0,85,0.00,,,0.04,Wunderground v.1.15,2013-06-05 22:35:00,
2013-06-05 17:45:00,70.9,65.8,29.78,NNE,26,1.0,1.0,84,0.00,,,0.04,Wunderground v.1.15,2013-06-05 22:45:00,
2013-06-05 17:55:00,70.1,65.0,29.78,NNE,28,1.0,1.0,84,0.00,,,0.04,Wunderground v.1.15,2013-06-05 22:55:00,
2013-06-05 18:05:00,69.8,64.7,29.78,North,360,1.0,1.0,84,0.00,,,0.04,Wunderground v.1.15,2013-06-05 23:05:00,
2013-06-05 18:10:00,69.6,64.5,29.78,North,360,1.0,3.0,84,0.00,,,0.04,Wunderground v.1.15,2013-06-05 23:10:00,
2013-06-05 18:20:00,69.4,64.0,29.78,North,355,1.0,3.0,83,0.00,,,0.04,Wunderground v.1.15,2013-06-05 23:20:00,
2013-06-05 18:29:00,69.4,64.0,29.78,North,350,1.0,4.0,83,0.00,,,0.04,Wunderground v.1.15,2013-06-05 23:29:00,
2013-06-05 18:35:00,69.6,64.2,29.78,NNE,24,1.0,4.0,83,0.00,,,0.04,Wunderground v.1.15,2013-06-05 23:35:00,
2013-06-05 18:45:00,69.6,63.9,29.78,NW,320,1.0,1.0,82,0.00,,,0.04,Wunderground v.1.15,2013-06-05 23:45:00,
2013-06-05 18:54:00,69.4,63.3,29.78,WSW,257,1.0,5.0,81,0.00,,,0.04,Wunderground v.1.15,2013-06-05 23:54:00,
2013-06-05 19:00:00,69.1,63.0,29.78,NNE,20,1.0,1.0,81,0.00,,,0.04,Wunderground v.1.15,2013-06-06 00:00:00,
2013-06-05 19:05:00,68.9,62.8,29.78,NNW,334,2.0,2.0,81,0.00,,,0.04,Wunderground v.1.15,2013-06-06 00:05:00,
2013-06-05 19:10:00,68.8,63.1,29.78,WNW,302,1.0,1.0,82,0.00,,,0.04,Wunderground v.1.15,2013-06-06 00:10:00,
2013-06-05 19:20:00,68.4,62.3,29.78,NNE,28,1.0,1.0,81,0.00,,,0.04,Wunderground v.1.15,2013-06-06 00:20:00,
2013-06-05 19:29:00,68.4,62.3,29.78,NW,318,2.0,2.0,81,0.00,,,0.04,Wunderground v.1.15,2013-06-06 00:29:00,
2013-06-05 19:35:00,68.3,62.6,29.79,NW,315,2.0,2.0,82,0.00,,,0.04,Wunderground v.1.15,2013-06-06 00:35:00,
2013-06-05 19:45:00,68.1,62.7,29.79,NW,319,1.0,3.0,83,0.00,,,0.04,Wunderground v.1.15,2013-06-06 00:45:00,
2013-06-05 19:54:00,67.9,62.9,29.79,NNW,329,1.0,1.0,84,0.00,,,0.04,Wunderground v.1.15,2013-06-06 00:54:00,
2013-06-05 20:00:00,67.8,62.8,29.79,NNW,329,0.0,0.0,84,0.00,,,0.04,Wunderground v.1.15,2013-06-06 01:00:00,
2013-06-05 20:10:00,67.8,62.8,29.80,NNW,328,1.0,2.0,84,0.00,,,0.04,Wunderground v.1.15,2013-06-06 01:10:00,
2013-06-05 20:20:00,67.6,62.9,29.80,NNW,328,0.0,1.0,85,0.00,,,0.04,Wunderground v.1.15,2013-06-06 01:20:00,
2013-06-05 20:29:00,67.3,62.3,29.80,NNE,14,1.0,1.0,84,0.00,,,0.04,Wunderground v.1.15,2013-06-06 01:29:00,
2013-06-05 20:35:00,67.1,62.1,29.80,NNE,14,0.0,1.0,84,0.00,,,0.04,Wunderground v.1.15,2013-06-06 01:35:00,
2013-06-05 20:45:00,66.4,61.4,29.80,NW,305,1.0,4.0,84,0.00,,,0.04,Wunderground v.1.15,2013-06-06 01:45:00,
2013-06-05 20:55:00,66.1,61.5,29.81,NW,312,1.0,4.0,85,0.00,,,0.04,Wunderground v.1.15,2013-06-06 01:55:00,
2013-06-05 21:05:00,66.1,61.5,29.81,NNE,13,1.0,1.0,85,0.00,,,0.04,Wunderground v.1.15,2013-06-06 02:05:00,
2013-06-05 21:10:00,66.1,61.8,29.81,North,5,0.0,0.0,86,0.00,,,0.04,Wunderground v.1.15,2013-06-06 02:10:00,
2013-06-05 21:20:00,66.1,61.8,29.81,North,5,0.0,0.0,86,0.00,,,0.04,Wunderground v.1.15,2013-06-06 02:20:00,
2013-06-05 21:29:00,66.0,61.7,29.81,NE,41,1.0,1.0,86,0.00,,,0.04,Wunderground v.1.15,2013-06-06 02:29:00,
2013-06-05 21:35:00,65.8,61.5,29.82,NNE,30,2.0,2.0,86,0.00,,,0.04,Wunderground v.1.15,2013-06-06 02:35:00,
2013-06-05 21:45:00,65.3,60.7,29.82,NNE,33,2.0,3.0,85,0.00,,,0.04,Wunderground v.1.15,2013-06-06 02:45:00,
2013-06-05 21:54:00,64.8,60.2,29.82,NNE,27,1.0,4.0,85,0.00,,,0.04,Wunderground v.1.15,2013-06-06 02:54:00,
2013-06-05 22:00:00,64.3,59.7,29.82,NNW,333,2.0,2.0,85,0.00,,,0.04,Wunderground v.1.15,2013-06-06 03:00:00,
2013-06-05 22:05:00,64.2,59.6,29.83,NNE,25,2.0,2.0,85,0.00,,,0.04,Wunderground v.1.15,2013-06-06 03:05:00,
2013-06-05 22:15:00,63.7,59.4,29.83,NNE,15,0.0,1.0,86,0.00,,,0.04,Wunderground v.1.15,2013-06-06 03:15:00,
2013-06-05 22:25:00,63.1,58.8,29.83,NNE,15,0.0,0.0,86,0.00,,,0.04,Wunderground v.1.15,2013-06-06 03:25:00,
2013-06-05 22:35:00,62.6,58.7,29.83,North,360,1.0,1.0,87,0.00,,,0.04,Wunderground v.1.15,2013-06-06 03:35:00,
2013-06-05 22:44:00,62.3,58.4,29.83,North,5,0.0,2.0,87,0.00,,,0.04,Wunderground v.1.15,2013-06-06 03:44:00,
2013-06-05 22:50:00,62.1,58.2,29.84,North,5,1.0,3.0,87,0.00,,,0.04,Wunderground v.1.15,2013-06-06 03:50:00,
2013-06-05 22:59:00,61.8,57.9,29.84,North,5,0.0,0.0,87,0.00,,,0.04,Wunderground v.1.15,2013-06-06 03:59:00,
2013-06-05 23:05:00,61.8,58.2,29.84,North,5,0.0,0.0,88,0.00,,,0.04,Wunderground v.1.15,2013-06-06 04:05:00,
2013-06-05 23:10:00,61.6,58.0,29.84,North,5,0.0,0.0,88,0.00,,,0.04,Wunderground v.1.15,2013-06-06 04:10:00,
2013-06-05 23:15:00,61.5,57.9,29.84,North,5,0.0,0.0,88,0.00,,,0.04,Wunderground v.1.15,2013-06-06 04:15:00,
2013-06-05 23:25:00,61.2,57.9,29.83,North,5,0.0,0.0,89,0.00,,,0.04,Wunderground v.1.15,2013-06-06 04:25:00,
2013-06-05 23:30:00,61.2,57.9,29.83,North,5,0.0,0.0,89,0.00,,,0.04,Wunderground v.1.15,2013-06-06 04:30:00,
2013-06-05 23:35:00,61.0,57.7,29.84,North,5,0.0,0.0,89,0.00,,,0.04,Wunderground v.1.15,2013-06-06 04:35:00,
2013-06-05 23:40:00,60.9,57.6,29.84,North,5,0.0,0.0,89,0.00,,,0.04,Wunderground v.1.15,2013-06-06 04:40:00,
2013-06-05 23:45:00,60.9,57.9,29.84,North,5,0.0,0.0,90,0.00,,,0.04,Wunderground v.1.15,2013-06-06 04:45:00,
2013-06-05 23:54:00,60.7,57.7,29.85,North,5,0.0,0.0,90,0.00,,,0.04,Wunderground v.1.15,2013-06-06 04:54:00,